Showing default

CAPELLA-15 (ACADIA), 60544

Orbit data source: Space-Track

CAPELLA-15 (ACADIA), 60544 is a payload satellite owned by Capella Space (US) in SSO that was launched on Fri, 16 Aug 2024 UTC via an FALCON 9 launch vehicle from the Air Force Western Test Range (AFWTR). Payload-class satellites include a variety of spacecraft equipped with specific instruments for various scientific and technological missions. These include communications satellites like Starlink; space stations such as the ISS; scientific satellites like the Hubble; Earth observation satellites from companies like Planet Labs, Umbra, and HawkEye 360; GPS; miniature CubeSats for education and research; and military/defense satellites.

Loading next visibility...
Identifier
60544, 2024-149CE
Orbit
SSO
Country
Flag of USUS
Related business
Manufacturer
Capella Space
Mission
Operational Commercial Radar Imaging
Bus & Motor
ACADIA, Unknown motor
Mass
180 kg wet, ~150 kg dry
Launch date (UTC)
2024-08-16 (2 years ago)
Launch vehicle
FALCON 9
Launch site
Air Force Western Test Range (AFWTR)
Object type
Payload
Rocket body
Debris
Shape & HBR
Box + 2 Pan + 1 Dish + 1 Rod, 5.0 m
Radar Cross Section
0.463 m², Large (>1 m²)

Expand to show TLE details & history
Last TLE update: 9 hours ago

TLE from 9 hours ago
0 CAPELLA-15 (ACADIA)
1 60544U 24149CE  26171.47377027  .00003255  00000-0  32315-3 0  9995
2 60544  97.6768 244.2947 0004546  70.1549 290.0160 14.92412183100342
Epoch: 2026-06-20T11:22Z
TLE epoch observation values (Epoch: 2026-06-20T11:22:13.751Z)
Latitude
-0.00002°
Longitude
165.04952°
Altitude
592.378 km
Speed
7.564 km/s
True Right ascension
16h 17m 10s
True Declination
0° 00' 00"
Sunlit
Object was in full shadow at epoch
Visualization orbit readout
Latitude
Unknown
Longitude
Unknown
Altitude
Unknown
Speed
Unknown
Apparent Right ascension
Unknown
Apparent Declination
Unknown
Sunlit
N/A
Visualization observer readout
Local Sidereal Time
07:21:46
Azimuth
Unknown
Elevation
Unknown
Doppler factor
Unknown
Orbital elements
Apogee altitude
590.598 km
Perigee altitude
584.265 km
Semi-major axis
6,965.568 km
Eccentricity
0.00045
Inclination
97.6768°
RAAN
244.2947°
Arg. of periapsis
70.1549°
True anomaly
289.96704°
Mean anomaly
290.016°
Eccentric anomaly
289.99152°
Mean motion
3.73343 °/min
Orbital period
96.43 mins
BSTAR
0.00032315
Loading maneuver chart data...
Computing Atmospheric mass density...
Loading historical data...
Loading historical data...
Loading historical data...
Loading historical data...
Loading historical data...
Loading historical data...
Loading historical data...

Documentation

Showing up to 5 results
|